Time[GMT],air_temperature[C](-3m),wind_speed[m/s](-4m),wind_gust[m/s](-4m),visibility[m](-3m),barometric_pressure[millibars](-3m),wind_2_direction[degrees_true](-4m),wind_2_gust[m/s](-4m),wind_2_gust_1s[m/s](-4m),wind_2_min[m/s](-4m),wind_2_percent_good[1](-4m),wind_2_speed[m/s](-4m),wind_direction[degrees_true](-4m),wind_gust_1s[m/s](-4m),wind_min[m/s](-4m)
2017-12-08 21:00,3.0,,,2963,1014.92,263.20,6.57,7.31,3.76,1.00,5.41,,,
2017-12-08 22:00,,,,,,,,,,,,,,
2017-12-08 23:00,3.2,,,2963,1015.35,228.80,5.57,6.36,2.52,1.00,4.37,,,
2017-12-09 00:00,3.6,,,2963,1015.84,238.60,6.61,7.37,2.52,1.00,5.35,,,
2017-12-09 01:00,,,,,,,,,,,,,,
2017-12-09 02:00,3.4,,,2962,1014.67,250.20,5.61,6.14,2.68,1.00,4.58,,,
2017-12-09 03:00,3.0,,,2963,1014.00,268.40,5.37,5.97,2.34,1.00,4.00,,,
2017-12-09 04:00,3.0,,,2960,1014.24,257.00,5.37,6.07,3.24,1.00,4.47,,,
2017-12-09 05:00,3.1,,,2963,1014.00,253.50,5.17,5.69,2.32,1.00,3.93,,,
2017-12-09 06:00,3.0,,,2958,1013.39,270.20,4.45,4.90,1.63,1.00,3.53,,,
2017-12-09 07:00,3.0,,,2956,1013.75,259.10,4.25,4.67,1.88,1.00,3.12,,,
2017-12-09 08:00,3.0,,,2953,1014.00,248.00,3.20,3.64,1.01,1.00,2.17,,,
2017-12-09 09:00,3.0,,,2960,1013.82,278.30,3.69,4.04,1.73,1.00,2.72,,,
2017-12-09 10:00,2.7,,,2951,1014.49,295.80,4.82,5.19,1.67,1.00,3.90,,,
2017-12-09 11:00,2.8,,,2959,1013.82,294.50,2.80,3.10,0.47,1.00,1.85,,,
2017-12-09 12:00,3.0,,,2945,1014.12,315.50,2.44,2.75,0.09,1.00,1.48,,,
2017-12-09 13:00,2.5,,,2928,1015.10,318.00,4.10,4.38,1.38,1.00,2.91,,,
2017-12-09 14:00,2.8,,,2925,1014.80,34.90,1.76,2.27,0.13,1.00,1.09,,,
2017-12-09 15:00,3.1,,,2926,1014.31,220.90,1.17,1.45,0.09,1.00,0.78,,,
2017-12-09 16:00,2.8,,,2931,1012.59,180.30,2.99,3.19,0.59,1.00,1.85,,,
2017-12-09 17:00,2.0,,,2285,1012.65,208.60,1.71,1.93,0.02,1.00,0.95,,,
2017-12-09 18:00,0.8,,,1693,1012.16,309.60,2.77,3.03,0.96,1.00,2.03,,,
2017-12-09 19:00,1.0,,,2678,1010.75,348.71,7.25,7.46,4.74,1.00,6.10,,,
2017-12-09 20:00,0.8,,,1543,1010.08,354.67,9.06,9.91,4.72,1.00,7.23,,,
2017-12-09 21:00,1.0,,,1841,1008.67,4.10,10.35,11.40,5.85,1.00,8.89,,,
2017-12-09 22:00,,,,,,,,,,,,,,
2017-12-09 23:00,1.2,,,1576,1006.65,5.38,12.39,13.27,6.73,1.00,10.33,,,
2017-12-10 00:00,1.2,,,1792,1005.61,11.21,12.79,13.52,7.28,1.00,10.38,,,
2017-12-10 01:00,,,,,,,,,,,,,,
2017-12-10 02:00,0.7,,,1006,1003.16,1.73,13.57,14.13,7.76,1.00,11.01,,,
2017-12-10 03:00,0.7,,,1444,1003.04,359.07,11.99,12.73,6.36,1.00,10.02,,,
2017-12-10 05:00,0.4,,,2615,1001.69,357.23,12.61,13.78,7.24,1.00,10.59,,,
2017-12-10 06:00,0.5,,,2944,1001.39,343.60,12.22,13.32,6.16,1.00,9.99,,,
2017-12-10 07:00,0.6,,,2964,1001.20,351.56,11.68,12.31,5.51,1.00,8.91,,,
2017-12-10 08:00,0.6,,,2963,1001.39,342.80,10.22,11.78,4.75,1.00,8.13,,,
2017-12-10 09:00,0.7,,,2947,1001.82,319.20,9.37,10.67,4.30,1.00,7.32,,,
2017-12-10 10:00,0.8,,,2944,1002.00,290.20,6.89,8.49,2.58,1.00,5.21,,,
2017-12-10 11:00,0.7,,,2903,1002.43,271.70,6.17,8.09,1.49,1.00,4.89,,,
2017-12-10 12:00,0.8,,,2964,1003.28,271.50,7.88,9.95,2.82,1.00,6.28,,,
2017-12-10 13:00,0.6,,,2964,1004.26,270.00,9.05,10.47,3.17,1.00,7.24,,,
2017-12-10 14:00,0.9,,,2964,1005.06,285.60,9.91,11.56,5.24,1.00,8.21,,,
2017-12-10 15:00,1.1,,,2964,1005.97,293.20,9.29,10.26,3.83,1.00,7.06,,,
2017-12-10 16:00,1.5,,,2903,1006.16,270.10,8.54,10.05,3.38,1.00,6.52,,,
2017-12-10 17:00,2.0,,,2963,1005.91,252.50,8.12,9.23,3.62,1.00,6.52,,,
2017-12-10 18:00,3.1,,,2958,1005.85,265.90,11.67,13.55,7.00,1.00,10.01,,,
2017-12-10 19:00,3.7,,,2922,1006.59,276.00,10.79,12.51,4.88,1.00,8.65,,,
2017-12-10 20:00,,,,,,,,,,,,,,
2017-12-10 21:00,3.3,,,2763,1008.36,259.10,11.23,12.50,6.08,1.00,9.37,,,
2017-12-10 22:00,3.1,,,2963,1009.46,253.90,11.00,12.26,5.21,1.00,8.86,,,
2017-12-10 23:00,3.1,,,2963,1010.38,251.70,11.61,12.47,5.28,1.00,9.26,,,
2017-12-11 00:00,3.1,,,2963,1010.38,251.70,11.61,12.47,5.28,1.00,9.26,,,
2017-12-11 01:00,2.7,,,2963,1011.73,246.30,11.23,11.75,5.87,1.00,9.47,,,
2017-12-11 02:00,,,,,,,,,,,,,,
2017-12-11 03:00,,,,,,,,,,,,,,
2017-12-11 04:00,2.9,,,2964,1012.71,234.40,10.38,11.48,6.50,1.00,8.98,,,
2017-12-11 05:00,3.2,,,2963,1012.59,226.70,12.25,13.06,6.54,1.00,10.32,,,
2017-12-11 06:00,2.5,,,2964,1012.34,245.30,11.01,12.43,7.01,1.00,9.68,,,
2017-12-11 07:00,2.4,,,2964,1012.28,251.20,10.79,11.74,6.38,1.00,9.06,,,
2017-12-11 08:00,2.3,,,2964,1011.67,254.20,10.46,11.39,5.57,1.00,8.83,,,
2017-12-11 09:00,2.3,,,2964,1011.42,257.70,10.47,11.32,5.43,1.00,8.36,,,
2017-12-11 10:00,2.0,,,2964,1011.67,259.70,8.88,10.01,5.13,1.00,7.32,,,
2017-12-11 11:00,2.0,,,2964,1011.98,253.70,8.99,9.94,5.00,1.00,7.34,,,
2017-12-11 12:00,2.0,,,2964,1012.22,260.30,9.85,11.62,5.44,1.00,8.03,,,
2017-12-11 13:00,2.2,,,2963,1012.90,256.40,8.66,9.79,4.79,1.00,7.17,,,
2017-12-11 14:00,2.1,,,2964,1013.08,247.60,9.49,10.30,4.93,1.00,7.65,,,
2017-12-11 15:00,2.0,,,2963,1013.51,252.00,9.79,10.02,5.39,1.00,7.87,,,
2017-12-11 16:00,2.3,,,2906,1013.14,262.70,9.37,9.58,4.47,1.00,7.16,,,
2017-12-11 17:00,2.5,,,2963,1012.77,265.30,7.43,8.34,3.95,1.00,5.94,,,
2017-12-11 18:00,3.3,,,2764,1012.53,289.00,8.86,9.80,4.11,1.00,7.04,,,
2017-12-11 19:00,,,,,,,,,,,,,,
2017-12-11 20:00,3.3,,,2960,1013.32,283.90,8.48,9.32,4.58,1.00,6.83,,,
2017-12-11 21:00,3.0,,,2963,1013.94,289.30,7.47,8.33,3.61,1.00,5.96,,,
2017-12-11 22:00,2.7,,,2963,1014.74,275.80,7.86,8.54,3.64,1.00,5.94,,,
2017-12-11 23:00,2.2,,,2963,1015.78,323.10,8.31,9.26,3.92,1.00,6.60,,,
2017-12-12 00:00,1.7,,,2963,1015.66,328.60,8.10,8.96,3.82,1.00,6.62,,,
2017-12-12 01:00,1.6,,,2963,1015.72,345.15,6.53,8.20,3.20,1.00,5.28,,,
2017-12-12 02:00,1.1,,,2964,1016.21,13.07,5.36,6.17,2.00,1.00,4.15,,,
2017-12-12 03:00,1.6,,,2964,1016.33,25.09,3.89,4.53,0.50,1.00,2.57,,,
2017-12-12 04:00,1.8,,,2964,1015.72,59.70,4.95,5.31,1.83,1.00,3.41,,,
2017-12-12 05:00,2.1,,,2964,1015.53,91.00,5.49,6.07,2.59,1.00,4.42,,,
2017-12-12 06:00,2.2,,,2964,1015.23,96.90,6.58,7.39,2.79,1.00,4.76,,,
2017-12-12 07:00,2.6,,,2963,1014.80,95.90,7.19,7.91,2.92,1.00,5.30,,,
2017-12-12 08:00,3.0,,,2964,1013.88,107.30,7.07,7.40,0.00,1.00,5.71,,,
2017-12-12 09:00,3.0,,,2798,1012.83,126.60,7.66,8.40,3.88,1.00,6.04,,,
2017-12-12 10:00,3.0,,,2963,1011.91,187.00,9.82,11.33,2.06,1.00,6.39,,,
2017-12-12 11:00,-1.0,,,1639,1011.61,4.94,10.94,11.82,6.52,1.00,9.42,,,
2017-12-12 12:00,,,,,,,,,,,,,,
2017-12-12 13:00,-0.6,,,1354,1009.83,27.52,10.41,11.62,6.45,1.00,9.10,,,
2017-12-12 14:00,,,,,,,,,,,,,,
2017-12-12 15:00,-0.8,,, 475,1007.63,8.16,12.38,13.88,6.00,1.00,10.30,,,
2017-12-12 16:00,0.6,,,2354,1005.73,12.74,11.21,11.86,2.07,1.00,8.94,,,
2017-12-12 17:00,,,,,,,,,,,,,,
2017-12-12 18:00,6.4,,,2785,1001.33,176.70,8.82,10.74,0.73,1.00,6.53,,,
2017-12-12 19:00,7.4,,,2705,999.49,148.30,11.34,12.37,5.61,1.00,9.13,,,
2017-12-12 20:00,7.8,,,2825,997.78,134.70,12.20,13.24,6.62,1.00,9.99,,,
2017-12-12 21:00,8.0,,,2877,995.59,124.80,12.50,13.85,7.43,1.00,10.54,,,
2017-12-12 22:00,7.9,,,1605,993.82,124.20,13.69,14.60,6.87,1.00,10.75,,,
2017-12-12 23:00,8.2,,,2897,992.23,133.60,8.93,10.08,4.20,1.00,7.34,,,
2017-12-13 00:00,8.1,,,2783,991.14,116.40,4.10,5.40,0.31,1.00,2.64,,,
2017-12-13 01:00,1.6,,,2280,990.41,336.10,8.76,10.80,4.21,1.00,7.68,,,
2017-12-13 02:00,0.5,,,1594,989.61,299.60,10.27,11.78,4.57,1.00,8.62,,,
2017-12-13 03:00,0.7,,,2751,989.49,324.70,8.53,9.97,4.19,1.00,7.18,,,
2017-12-13 04:00,0.7,,,2963,989.00,315.20,8.46,10.51,3.70,1.00,7.10,,,
2017-12-13 05:00,0.9,,,2963,987.97,284.90,6.14,7.54,2.95,1.00,5.26,,,
2017-12-13 06:00,0.9,,,2964,987.48,263.50,7.61,9.02,3.21,1.00,6.33,,,
2017-12-13 07:00,1.3,,,2964,986.81,282.40,10.32,12.13,5.28,1.00,8.61,,,
2017-12-13 08:00,1.3,,,2964,987.30,269.10,11.95,13.34,5.36,1.00,9.18,,,
2017-12-13 09:00,,,,,,,,,,,,,,
2017-12-13 10:00,,,,,,,,,,,,,,
2017-12-13 11:00,-0.7,,,2964,986.14,285.30,12.67,13.63,6.93,1.00,10.68,,,
2017-12-13 12:00,-1.7,,,2964,985.60,286.00,13.13,13.66,6.21,1.00,10.15,,,
2017-12-13 13:00,,,,,,,,,,,,,,
2017-12-13 14:00,-2.6,,,2964,986.69,281.30,13.43,14.42,7.81,1.00,10.80,,,
2017-12-13 15:00,-2.3,,,2814,987.00,283.00,12.75,13.79,6.98,1.00,10.39,,,
2017-12-13 16:00,-2.3,,,2963,986.45,274.10,13.62,15.06,7.65,1.00,11.58,,,
2017-12-13 17:00,-2.6,,,2781,986.39,271.70,15.29,16.30,6.10,1.00,12.09,,,
2017-12-13 18:00,-2.3,,,2963,986.45,274.10,13.62,15.06,7.65,1.00,11.58,,,
2017-12-13 19:00,-3.0,,,2964,987.97,272.70,16.26,19.31,9.42,1.00,13.70,,,
2017-12-13 20:00,-3.0,,,2964,989.13,267.30,16.50,18.02,9.85,1.00,14.01,,,
2017-12-13 21:00,-3.0,,,2964,989.13,267.30,16.50,18.02,9.85,1.00,14.01,,,
2017-12-13 22:00,-4.1,,,2964,990.83,264.10,14.94,16.60,7.64,1.00,11.26,,,
2017-12-15 14:00,0.0,,,,,,,,,0.00,,,,
2017-12-15 15:00,-5.8,,,2964,1017.74,258.70,7.91,8.85,2.42,1.00,5.97,,,
2017-12-15 16:00,-5.1,,,2964,1016.82,254.10,6.90,7.76,2.62,1.00,4.93,,,
2017-12-15 18:00,-4.1,,,2964,1015.29,256.80,4.52,5.40,1.33,1.00,3.26,,,
2017-12-15 19:00,-3.5,,,2964,1014.74,235.60,4.12,4.60,1.15,1.00,2.76,,,
2017-12-15 20:00,-3.0,,,2964,1014.43,224.00,4.58,5.01,1.28,1.00,3.55,,,
2017-12-15 21:00,-2.5,,,2964,1013.82,224.10,5.51,5.89,1.99,1.00,3.75,,,
2017-12-15 22:00,-2.3,,,2964,1012.96,214.60,4.42,4.78,0.99,1.00,2.62,,,
2017-12-15 23:00,-2.2,,,2964,1011.91,209.00,2.55,3.02,0.37,1.00,1.58,,,
2017-12-16 00:00,-2.2,,,2963,1010.44,185.90,2.33,2.84,0.06,1.00,0.86,,,
2017-12-16 01:00,-1.8,,,2964,1010.50,149.20,5.96,6.33,1.78,1.00,3.51,,,
2017-12-16 02:00,-2.6,,,2964,1010.14,240.90,4.95,5.09,2.06,1.00,3.56,,,
2017-12-16 03:00,-3.2,,,2964,1009.52,284.80,6.40,6.79,3.06,1.00,4.72,,,
2017-12-16 04:00,-2.8,,,2963,1008.85,291.40,7.39,8.72,3.85,1.00,5.79,,,
2017-12-16 05:00,-3.1,,,2964,1007.99,292.80,8.07,9.20,4.47,1.00,6.72,,,
2017-12-16 06:00,-3.1,,,2964,1007.75,284.20,9.59,11.03,5.28,1.00,7.91,,,
2017-12-16 07:00,-3.4,,,2964,1007.69,299.60,9.73,10.77,5.48,1.00,7.79,,,
2017-12-16 08:00,-3.3,,,2964,1007.69,310.20,10.15,11.49,5.27,1.00,7.70,,,
2017-12-16 09:00,-3.5,,,2964,1007.87,290.70,9.82,10.44,3.94,1.00,7.40,,,
2017-12-16 10:00,-3.7,,,2964,1008.48,283.10,10.04,10.74,4.21,1.00,7.05,,,
2017-12-16 11:00,-3.9,,,2964,1008.97,287.70,10.21,11.09,5.12,1.00,7.91,,,
2017-12-16 12:00,-4.1,,,2964,1009.65,276.60,8.38,9.73,4.01,1.00,7.12,,,
2017-12-16 13:00,-3.4,,,2933,1010.08,280.90,8.19,9.08,4.05,1.00,6.65,,,
2017-12-16 14:00,,,,,,,,,,,,,,
2017-12-16 15:00,,,,,,,,,,,,,,
2017-12-16 16:00,-2.2,,,2964,1010.50,266.40,9.86,10.51,5.10,1.00,7.56,,,
2017-12-16 17:00,-0.9,,,2964,1010.14,250.70,9.85,10.63,4.42,1.00,7.30,,,
2017-12-16 18:00,0.3,,,2930,1009.71,267.20,10.69,11.85,4.80,1.00,8.03,,,
2017-12-16 19:00,0.7,,,2907,1009.89,284.60,11.19,12.46,5.34,1.00,8.27,,,
2017-12-16 20:00,0.7,,,2964,1011.12,295.90,10.36,11.57,5.46,1.00,8.50,,,
2017-12-16 21:00,-0.6,,,2964,1011.98,277.00,12.67,13.70,7.21,1.00,10.76,,,
2017-12-16 22:00,-0.4,,,2964,1013.14,287.30,11.48,13.08,6.37,1.00,10.10,,,
2017-12-16 23:00,-0.9,,,2444,1014.86,302.00,17.34,18.53,7.76,1.00,12.20,,,
2017-12-17 00:00,-1.4,,,2964,1015.84,280.50,12.54,14.36,5.22,1.00,9.32,,,
2017-12-17 02:00,-1.9,,,2964,1017.62,308.50,10.29,11.33,5.01,1.00,8.07,,,
2017-12-17 03:00,-2.9,,,2964,1018.54,291.80,11.13,12.54,7.13,1.00,9.53,,,
2017-12-17 04:00,-3.3,,,2964,1018.91,315.40,10.53,11.90,5.60,1.00,8.45,,,
2017-12-17 05:00,-3.9,,,2964,1019.46,301.70,9.09,10.29,4.27,1.00,7.52,,,
2017-12-17 06:00,-4.5,,,2964,1020.08,303.60,9.81,10.51,4.20,1.00,7.65,,,
2017-12-17 07:00,-4.9,,,2964,1020.88,314.10,8.15,9.41,4.02,1.00,6.76,,,
2017-12-17 08:00,-5.0,,,2964,1021.31,319.10,7.91,8.63,3.35,1.00,5.95,,,
2017-12-17 09:00,-5.2,,,2964,1021.55,300.00,6.62,7.55,2.41,1.00,4.67,,,
2017-12-17 10:00,-5.7,,,2964,1022.23,292.40,5.96,6.92,2.69,1.00,4.56,,,
2017-12-17 11:00,-5.8,,,2964,1022.72,306.70,6.28,7.29,2.62,1.00,4.61,,,
2017-12-17 12:00,-5.7,,,2965,1023.34,296.50,7.95,8.20,3.12,1.00,5.41,,,
2017-12-17 13:00,-5.1,,,2858,1022.66,334.90,7.17,7.90,3.00,1.00,5.77,,,
2017-12-17 14:00,-5.1,,,2711,1023.34,324.30,6.87,7.57,3.19,1.00,5.39,,,
2017-12-17 15:00,-5.3,,,2964,1023.58,322.80,6.03,6.77,1.86,1.00,4.40,,,
2017-12-17 16:00,-4.5,,,2831,1022.97,332.10,5.80,6.28,1.84,1.00,3.96,,,
2017-12-17 17:00,-3.7,,,2840,1022.54,295.00,6.29,6.61,1.71,1.00,3.86,,,
2017-12-17 18:00,-2.8,,,2953,1022.35,284.10,6.28,6.68,1.90,1.00,4.21,,,
2017-12-17 19:00,-1.9,,,2805,1021.80,298.80,9.38,9.77,2.67,1.00,6.45,,,
2017-12-17 20:00,-2.2,,,2959,1021.55,314.20,8.80,10.02,3.59,1.00,6.70,,,
2017-12-17 21:00,-2.5,,,2964,1022.72,308.50,9.20,9.97,3.76,1.00,6.51,,,
2017-12-17 22:00,-2.9,,,2964,1023.40,303.50,9.90,10.88,4.73,1.00,8.11,,,
2017-12-17 23:00,-3.6,,,2964,1023.58,320.40,9.39,10.86,4.94,1.00,7.46,,,
2017-12-18 00:00,-3.9,,,2964,1024.44,324.50,8.13,9.49,4.04,1.00,6.56,,,
2017-12-18 01:00,-4.1,,,2963,1024.32,351.55,6.24,6.94,2.24,1.00,4.43,,,
2017-12-18 02:00,-4.2,,,2964,1024.63,5.84,4.56,5.38,0.37,1.00,2.63,,,
2017-12-18 03:00,-4.3,,,2964,1024.20,339.80,5.00,5.34,1.71,1.00,3.57,,,
2017-12-18 04:00,-4.4,,,2964,1023.71,353.39,4.91,5.73,1.21,1.00,3.44,,,
2017-12-18 05:00,-4.6,,,2964,1022.97,354.15,5.68,6.06,1.87,1.00,3.83,,,
2017-12-18 06:00,-4.1,,,2964,1022.60,348.93,5.24,5.70,2.29,1.00,3.84,,,
2017-12-18 07:00,-3.9,,,2964,1023.46,333.20,6.42,6.88,2.98,1.00,4.92,,,
2017-12-18 08:00,-4.9,,,2964,1023.15,311.10,6.55,6.96,2.56,1.00,4.71,,,
2017-12-18 09:00,-4.9,,,2963,1022.72,322.00,3.77,4.33,0.83,1.00,2.41,,,
2017-12-18 11:00,-4.3,,,2964,1021.92,354.65,2.18,2.51,0.05,1.00,1.21,,,
2017-12-18 12:00,-3.7,,,2964,1021.61,264.40,2.46,2.72,0.25,1.00,1.43,,,
2017-12-18 13:00,,,,,,,,,,,,,,
2017-12-18 14:00,-4.7,,,2963,1021.37,258.90,6.62,7.08,3.97,1.00,5.61,,,
2017-12-18 15:00,-4.4,,,2964,1020.63,237.60,5.74,6.55,2.44,1.00,4.38,,,
2017-12-18 16:00,-3.8,,,2963,1018.91,235.60,3.67,4.32,0.76,1.00,2.29,,,
2017-12-18 17:00,-2.9,,,2964,1017.44,230.40,2.41,2.67,0.35,1.00,1.46,,,
2017-12-18 18:00,-2.2,,,2964,1016.52,240.00,3.86,4.15,1.53,1.00,2.73,,,
2017-12-18 19:00,-2.7,,,2964,1015.41,260.80,4.09,5.25,1.87,1.00,2.93,,,
2017-12-18 20:00,-2.9,,,2963,1015.23,276.50,5.14,5.46,2.20,1.00,3.91,,,
2017-12-18 21:00,-2.5,,,2964,1014.61,262.30,4.38,4.94,2.30,1.00,3.53,,,
2017-12-18 22:00,-1.4,,,2964,1014.00,232.80,4.39,5.03,2.40,1.00,3.59,,,
2017-12-18 23:00,-0.7,,,2964,1013.69,246.70,5.21,5.56,2.69,1.00,4.16,,,
2017-12-19 00:00,-0.4,,,2964,1013.02,243.10,4.83,5.37,1.90,1.00,3.63,,,
2017-12-19 01:00,-0.2,,,2964,1012.65,259.30,4.36,4.68,2.15,1.00,3.34,,,
2017-12-19 02:00,-0.0,,,2964,1012.16,256.30,5.24,5.71,2.74,1.00,4.16,,,
2017-12-19 03:00,0.0,,,2964,1011.30,254.70,4.41,4.74,1.78,1.00,3.45,,,
2017-12-19 04:00,0.1,,,2964,1010.69,253.50,5.04,5.50,2.55,1.00,4.05,,,
2017-12-19 05:00,0.2,,,2927,1010.08,261.40,5.53,6.02,2.66,1.00,4.41,,,
2017-12-19 06:00,0.3,,,2964,1009.59,254.10,4.67,4.97,2.31,1.00,3.76,,,
2017-12-19 07:00,0.7,,,2964,1009.59,239.60,3.49,3.83,1.74,1.00,2.73,,,
2017-12-19 08:00,1.2,,,2964,1009.71,275.80,3.61,4.15,1.69,1.00,2.86,,,
2017-12-19 09:00,1.2,,,2963,1009.40,287.80,3.07,3.37,1.30,1.00,2.26,,,
2017-12-19 10:00,1.6,,,2964,1009.34,261.90,3.67,3.97,1.91,1.00,2.95,,,
2017-12-19 11:00,1.4,,,2963,1009.28,253.60,4.80,5.10,2.39,1.00,3.90,,,
2017-12-19 12:00,1.3,,,2963,1008.73,246.00,4.51,4.95,2.55,1.00,3.72,,,
2017-12-19 13:00,2.8,,,2963,1008.61,242.90,6.82,7.25,4.04,1.00,5.61,,,
2017-12-19 14:00,3.5,,,2963,1007.75,226.30,6.20,7.26,3.23,1.00,4.97,,,
2017-12-19 15:00,4.4,,,2963,1006.65,221.30,8.25,8.98,4.88,1.00,6.99,,,
2017-12-19 16:00,4.2,,,2963,1005.85,237.30,7.60,8.73,4.61,1.00,6.30,,,
2017-12-19 17:00,5.5,,,2963,1004.57,251.40,8.74,9.61,4.48,1.00,7.20,,,
2017-12-19 18:00,6.7,,,2963,1003.41,241.60,7.76,8.48,3.73,1.00,6.58,,,
2017-12-19 19:00,7.2,,,2963,1002.55,228.20,8.77,9.44,5.44,1.00,7.67,,,
2017-12-19 20:00,7.6,,,2963,1002.37,213.30,7.54,8.61,4.26,1.00,6.66,,,
2017-12-19 21:00,7.7,,,2963,1002.06,213.70,7.61,8.55,4.68,1.00,6.61,,,
2017-12-19 22:00,7.5,,,2962,1002.37,212.70,6.64,7.70,3.87,1.00,5.72,,,
2017-12-19 23:00,7.9,,,2963,1001.08,209.40,9.57,10.10,5.23,1.00,7.56,,,
2017-12-20 00:00,8.0,,,2963,1000.23,212.80,10.26,12.12,5.93,1.00,8.87,,,
2017-12-20 01:00,7.8,,,2963,999.86,213.60,12.03,12.81,6.87,1.00,10.00,,,
2017-12-20 02:00,7.3,,,2963,1000.23,233.70,9.67,10.53,5.79,1.00,8.10,,,
2017-12-20 03:00,6.8,,,2963,1000.41,273.60,6.41,7.26,2.82,1.00,5.01,,,
2017-12-20 04:00,,,,,,,,,,,,,,
2017-12-20 05:00,6.6,,,2963,1000.04,269.90,11.04,12.97,6.52,1.00,9.19,,,
2017-12-20 06:00,6.3,,,2963,1000.47,272.10,9.30,10.49,4.70,1.00,7.57,,,
2017-12-20 07:00,5.8,,,2963,1001.33,259.20,10.23,10.46,4.71,1.00,8.01,,,
2017-12-20 08:00,5.4,,,2963,1001.27,259.60,9.35,10.71,5.23,1.00,8.10,,,
2017-12-20 09:00,5.1,,,2963,1001.45,251.00,9.29,10.16,4.91,1.00,7.63,,,
2017-12-20 10:00,4.6,,,2963,1002.18,257.90,10.48,11.43,5.76,1.00,9.00,,,
2017-12-20 11:00,4.3,,,2963,1002.98,256.30,9.52,10.86,5.11,1.00,8.11,,,
2017-12-20 12:00,4.1,,,2963,1003.59,251.70,10.54,11.55,6.06,1.00,8.41,,,
2017-12-20 13:00,,,,,,,,,,,,,,
2017-12-20 14:00,4.0,,,2963,1004.69,259.30,10.55,12.86,6.11,1.00,8.87,,,
2017-12-20 15:00,4.2,,,2668,1005.24,291.90,11.32,13.50,6.10,1.00,8.79,,,
2017-12-20 16:00,4.5,,,2963,1004.81,289.80,15.84,16.86,8.01,1.00,12.63,,,
2017-12-20 17:00,4.5,,,2440,1005.12,294.10,16.94,18.97,9.67,1.00,13.92,,,
2017-12-20 18:00,4.6,,,2900,1005.30,293.90,14.47,15.67,8.46,1.00,12.37,,,
2017-12-20 19:00,4.5,,,2959,1005.91,291.50,12.50,13.86,7.92,1.00,11.12,,,
2017-12-20 20:00,4.0,,,2963,1006.59,305.50,14.18,15.57,8.57,1.00,12.17,,,
2017-12-20 21:00,3.6,,,2963,1007.69,297.90,10.13,10.53,5.67,1.00,8.06,,,
2017-12-20 22:00,3.4,,,2963,1008.73,289.80,11.25,12.39,6.30,1.00,9.18,,,
2017-12-20 23:00,2.7,,,2963,1010.01,302.90,9.75,10.53,4.41,1.00,7.95,,,
2017-12-21 00:00,,,,,,,,,,,,,,
2017-12-21 01:00,1.2,,,2963,1011.55,302.20,11.92,13.17,6.66,1.00,9.97,,,
2017-12-21 02:00,0.6,,,2963,1012.22,289.90,11.22,12.46,2.66,1.00,9.29,,,
2017-12-21 03:00,-0.1,,,2963,1012.83,288.40,9.47,11.38,3.45,1.00,7.78,,,
2017-12-21 05:00,-0.9,,,2964,1013.32,290.90,12.64,13.73,5.63,1.00,9.66,,,
2017-12-21 06:00,-1.1,,,2964,1013.94,281.70,11.60,12.24,5.15,1.00,8.70,,,
2017-12-21 07:00,-1.4,,,2964,1014.43,293.70,12.37,13.11,6.38,1.00,10.11,,,
2017-12-21 08:00,-1.7,,,2964,1014.80,295.50,16.45,17.33,8.96,1.00,12.78,,,
2017-12-21 09:00,,,,,,,,,,,,,,
2017-12-21 10:00,-2.4,,,2964,1015.29,300.80,16.60,18.82,10.06,1.00,13.89,,,
2017-12-21 11:00,-3.2,,,2964,1016.76,315.70,14.70,18.17,7.32,1.00,12.43,,,
2017-12-21 12:00,-4.1,,,2964,1017.99,315.90,12.42,13.17,6.55,1.00,10.10,,,
2017-12-21 13:00,-4.4,,,2889,1018.85,326.20,10.33,11.53,5.29,1.00,8.68,,,
2017-12-21 14:00,-5.0,,,2960,1019.71,305.80,8.68,9.46,3.62,1.00,6.70,,,
2017-12-21 15:00,-4.5,,,2963,1020.14,330.60,9.71,10.61,4.79,1.00,7.48,,,
2017-12-21 16:00,-4.5,,,2964,1020.26,327.80,8.55,9.54,3.98,1.00,6.12,,,
2017-12-21 17:00,-3.9,,,2901,1020.08,296.80,6.68,7.20,2.24,1.00,4.83,,,
2017-12-21 18:00,-2.4,,,2907,1020.08,287.30,3.68,4.01,0.31,1.00,2.10,,,
2017-12-21 19:00,-2.5,,,2963,1020.45,272.00,4.35,4.83,1.72,1.00,3.21,,,
2017-12-21 20:00,-1.4,,,2728,1020.82,338.30,5.41,5.74,0.44,1.00,2.72,,,
2017-12-21 21:00,-1.6,,,2963,1021.49,305.00,8.33,9.34,3.67,1.00,6.15,,,
2017-12-21 22:00,-2.0,,,2963,1021.98,296.90,10.90,11.94,4.76,1.00,8.31,,,
2017-12-21 23:00,-2.3,,,2963,1023.27,300.60,11.23,12.15,6.19,1.00,9.55,,,
2017-12-22 00:00,-2.7,,,2964,1024.14,308.60,11.17,11.99,6.83,1.00,9.32,,,
2017-12-22 01:00,-2.9,,,2964,1024.07,323.80,10.79,11.90,6.25,1.00,8.98,,,
2017-12-22 02:00,-3.7,,,2964,1024.69,321.80,8.50,9.69,3.44,1.00,6.57,,,
2017-12-22 03:00,-3.9,,,2964,1025.37,340.00,7.76,8.53,3.38,1.00,5.67,,,
2017-12-22 04:00,-4.1,,,2964,1025.74,321.30,5.94,6.80,1.86,1.00,4.04,,,
2017-12-22 05:00,-4.1,,,2964,1025.67,341.30,6.22,6.95,2.24,1.00,4.64,,,
2017-12-22 06:00,-4.4,,,2964,1025.67,1.11,5.13,5.76,2.21,1.00,3.87,,,
2017-12-22 07:00,-3.9,,,2964,1026.17,16.81,5.15,5.77,1.17,1.00,3.61,,,
2017-12-22 08:00,-3.8,,,2964,1026.35,7.41,4.16,4.55,0.15,1.00,2.58,,,
2017-12-22 09:00,-3.9,,,2964,1026.91,337.60,6.21,6.65,2.66,1.00,4.98,,,
2017-12-22 10:00,-4.4,,,2964,1027.46,346.34,6.40,7.36,2.64,1.00,5.16,,,
2017-12-22 11:00,-4.3,,,2964,1028.39,344.06,6.10,6.70,2.45,1.00,4.56,,,
2017-12-22 12:00,-4.3,,,2964,1028.94,337.10,4.79,5.32,1.71,1.00,3.73,,,
2017-12-22 13:00,-4.7,,,2956,1029.25,358.51,4.42,5.09,1.24,1.00,3.25,,,
2017-12-22 14:00,-5.3,,,2964,1029.56,340.80,5.24,5.63,1.50,1.00,3.85,,,
2017-12-22 15:00,-4.7,,,2964,1029.25,349.05,7.41,8.02,3.74,1.00,5.64,,,
2017-12-22 16:00,-3.4,,,2964,1028.45,67.60,6.29,7.32,2.83,1.00,4.87,,,
2017-12-22 17:00,-3.1,,,2964,1027.71,63.60,7.48,8.16,3.42,1.00,5.46,,,
2017-12-22 18:00,-3.0,,,2810,1027.65,68.90,6.71,7.86,3.24,1.00,5.41,,,
2017-12-22 19:00,-2.5,6.0,7.5,2964,1027.15,,,,,0.92,,76.30,8.04,4.12
2017-12-22 20:00,-2.0,,,2964,1026.60,73.80,9.57,10.59,5.60,1.00,8.19,,,
2017-12-22 21:00,-1.5,,,2964,1026.23,78.80,10.43,11.22,4.39,1.00,8.17,,,
2017-12-22 22:00,-0.8,,,2964,1025.98,88.70,9.80,10.61,5.70,1.00,7.97,,,
2017-12-22 23:00,0.3,,,1514,1025.86,103.20,8.91,9.86,4.63,1.00,7.10,,,
2017-12-23 00:00,0.6,,,1641,1025.61,90.70,8.58,9.88,4.83,1.00,7.24,,,
2017-12-23 01:00,1.3,,,2164,1025.18,92.30,9.22,9.79,4.70,1.00,7.43,,,
2017-12-23 03:00,2.8,,,2885,1023.83,91.20,8.63,9.41,4.15,1.00,7.24,,,
2017-12-23 04:00,2.3,,,1923,1023.71,62.40,6.69,7.66,0.65,1.00,4.51,,,
2017-12-23 05:00,-3.4,,, 505,1023.09,358.82,11.79,13.21,6.25,1.00,9.98,,,
2017-12-23 06:00,,,,,,,,,,,,,,
2017-12-23 07:00,-3.2,,, 533,1022.23,,,,,0.39,,,5.29,2.55
2017-12-23 08:00,-3.3,,, 331,1021.98,,,,,0.00,,,4.70,2.55
2017-12-23 09:00,-3.8,,, 309,1021.55,,,,,0.00,,,3.53,2.16
2017-12-23 10:00,-3.6,,, 200,1021.06,,,,,0.00,,,3.53,1.96
2017-12-23 11:00,-3.1,,, 232,1020.26,,,,,0.09,,,,
2017-12-23 12:00,-2.7,,, 187,1019.40,,,,,0.22,,,,
2017-12-23 13:00,-2.1,,, 169,1018.85,,,,,0.01,,,,
2017-12-23 14:00,-2.6,,, 129,1018.48,,,,,0.00,,,2.35,0.59
2017-12-23 15:00,,,,,,,,,,,,,,
2017-12-23 16:00,-1.2,,,  83,1015.90,,,,,0.02,,,1.18,0.00
2017-12-23 19:00,,,,,,,,,,,,,,
2017-12-23 20:00,,,,,,,,,,,,,,
2017-12-23 21:00,2.7,,,1785,1002.79,9.78,9.15,10.06,5.13,1.00,7.88,,,
2017-12-23 23:00,2.2,,,2791,1003.04,307.00,6.92,8.66,2.22,1.00,5.63,,,
2017-12-24 00:00,2.9,,,2963,1003.34,249.10,5.41,6.91,1.52,1.00,4.05,,,
2017-12-24 01:00,2.7,,,2951,1003.96,268.20,7.08,8.75,2.54,1.00,5.67,,,
2017-12-24 03:00,3.7,,,2963,1004.87,240.70,9.67,11.18,5.33,1.00,7.95,,,
2017-12-24 04:00,3.6,,,2963,1006.34,260.40,10.14,11.70,5.09,1.00,8.52,,,
2017-12-24 05:00,4.1,,,2963,1008.18,288.40,9.33,10.54,4.97,1.00,7.94,,,
2017-12-24 06:00,4.2,,,2963,1009.46,296.80,10.07,11.50,4.35,1.00,8.02,,,
2017-12-24 07:00,4.1,,,2963,1010.69,300.30,11.82,13.08,5.98,1.00,10.15,,,
2017-12-24 09:00,2.8,,,2963,1014.67,303.90,13.21,14.41,7.17,1.00,11.28,,,
2017-12-24 10:00,2.0,,,2963,1015.96,292.00,11.98,13.51,7.35,1.00,10.23,,,
2017-12-24 11:00,1.8,,,2963,1017.93,308.50,11.62,12.68,6.34,1.00,9.34,,,
2017-12-24 12:00,1.3,,,2963,1018.73,310.90,8.59,10.01,4.71,1.00,7.15,,,
2017-12-24 13:00,1.2,,,2856,1019.46,332.20,7.06,8.15,2.16,1.00,4.99,,,
2017-12-24 14:00,1.3,,,2781,1021.68,313.50,5.78,6.82,2.15,1.00,4.51,,,
2017-12-24 15:00,1.3,,,2960,1023.09,309.00,5.49,6.59,2.11,1.00,4.27,,,
2017-12-24 16:00,1.0,,,2961,1022.91,314.00,6.04,6.90,1.96,1.00,4.57,,,
2017-12-24 17:00,1.0,,,2958,1022.04,347.15,7.23,7.74,3.39,1.00,5.58,,,
2017-12-24 18:00,1.1,,,2952,1022.04,356.42,6.30,6.79,2.02,1.00,4.24,,,
2017-12-24 19:00,1.2,,,2830,1022.48,357.59,4.49,5.12,0.83,1.00,3.07,,,
2017-12-24 20:00,1.0,,,2918,1022.78,28.93,4.33,4.78,0.85,1.00,2.99,,,
2017-12-24 21:00,1.2,,,2902,1022.72,43.87,4.95,5.64,1.38,1.00,3.81,,,
2017-12-24 22:00,1.1,,,2963,1022.78,50.84,6.73,7.18,3.10,1.00,5.23,,,
2017-12-24 23:00,1.1,,,2963,1022.54,40.31,9.24,10.04,4.83,1.00,7.33,,,
2017-12-25 00:00,,,,,,,,,,,,,,
2017-12-25 01:00,0.8,,,2963,1022.17,46.52,10.55,11.75,5.50,1.00,8.52,,,
2017-12-25 02:00,0.7,,,2963,1021.18,50.85,11.44,12.62,6.30,1.00,9.19,,,